owner,sensor,date,latitude,longitude,vertical_datum,direction_of_sea_water_velocity,sea_water_speed,upward_sea_water_velocity,qcFlag 
TABS,ioos:station:wmo:42050:1,2001-10-01T00:00:00Z,28.8425,-94.2433,2.0,244.5551009,14.40750499,-99999.0,'11111222,11111222,99999999' 
TABS,ioos:station:wmo:42050:1,2001-10-01T00:30:00Z,28.8425,-94.2433,2.0,249.6812994,12.41232049,-99999.0,'11111222,11111222,99999999' 
TABS,ioos:station:wmo:42050:1,2001-10-01T01:00:00Z,28.8425,-94.2433,2.0,246.2232912,17.18888594,-99999.0,'11111222,11111222,99999999' 
TABS,ioos:station:wmo:42050:1,2001-10-01T01:30:00Z,28.8425,-94.2433,2.0,248.9621173,18.24618864,-99999.0,'11111222,11111222,99999999' 
TABS,ioos:station:wmo:42050:1,2001-10-01T02:00:00Z,28.8425,-94.2433,2.0,243.8665058,13.6448745,-99999.0,'11111222,11111222,99999999' 
TABS,ioos:station:wmo:42050:1,2001-10-01T02:30:00Z,28.8425,-94.2433,2.0,255.8978378,12.72342721,-99999.0,'11111222,11111222,99999999' 
TABS,ioos:station:wmo:42050:1,2001-10-01T03:00:00Z,28.8425,-94.2433,2.0,247.2066484,12.98390542,-99999.0,'11111222,11111222,99999999' 
TABS,ioos:station:wmo:42050:1,2001-10-01T03:30:00Z,28.8425,-94.2433,2.0,258.249623,12.76753696,-99999.0,'11111222,11111222,99999999' 
TABS,ioos:station:wmo:42050:1,2001-10-01T04:00:00Z,28.8425,-94.2433,2.0,256.0940476,9.570480657,-99999.0,'11133222,11111222,99999999' 
TABS,ioos:station:wmo:42050:1,2001-10-01T04:30:00Z,28.8425,-94.2433,2.0,272.2845066,7.025581826,-99999.0,'11133222,11111222,99999999' 
TABS,ioos:station:wmo:42050:1,2001-10-01T05:00:00Z,28.8425,-94.2433,2.0,270.1800305,6.380031348,-99999.0,'11133222,11111222,99999999' 
TABS,ioos:station:wmo:42050:1,2001-10-01T05:30:00Z,28.8425,-94.2433,2.0,265.2505387,6.522392199,-99999.0,'11133222,11111222,99999999' 
TABS,ioos:station:wmo:42050:1,2001-10-01T06:00:00Z,28.8425,-94.2433,2.0,263.2856386,8.125724583,-99999.0,'11133222,11111222,99999999' 
TABS,ioos:station:wmo:42050:1,2001-10-01T06:30:00Z,28.8425,-94.2433,2.0,262.9603513,10.77118842,-99999.0,'11111222,11111222,99999999' 
TABS,ioos:station:wmo:42050:1,2001-10-01T07:00:00Z,28.8425,-94.2433,2.0,255.732494,7.222769552,-99999.0,'11133222,11111222,99999999' 
TABS,ioos:station:wmo:42050:1,2001-10-01T07:30:00Z,28.8425,-94.2433,2.0,285.0366377,5.280804863,-99999.0,'11133222,11111222,99999999' 
TABS,ioos:station:wmo:42050:1,2001-10-01T08:00:00Z,28.8425,-94.2433,2.0,269.2440759,4.550395587,-99999.0,'11133222,11111222,99999999' 
TABS,ioos:station:wmo:42050:1,2001-10-01T08:30:00Z,28.8425,-94.2433,2.0,249.539651,6.980343831,-99999.0,'11133222,11111222,99999999' 
TABS,ioos:station:wmo:42050:1,2001-10-01T09:00:00Z,28.8425,-94.2433,2.0,257.9339454,5.501536149,-99999.0,'11133222,11111222,99999999' 
TABS,ioos:station:wmo:42050:1,2001-10-01T09:30:00Z,28.8425,-94.2433,2.0,248.9497531,6.654036369,-99999.0,'11133222,11111222,99999999' 
TABS,ioos:station:wmo:42050:1,2001-10-01T10:00:00Z,28.8425,-94.2433,2.0,241.6988895,4.577095149,-99999.0,'11133222,11111222,99999999' 
TABS,ioos:station:wmo:42050:1,2001-10-01T10:30:00Z,28.8425,-94.2433,2.0,228.6866688,2.968922363,-99999.0,'11133222,11111222,99999999' 
TABS,ioos:station:wmo:42050:1,2001-10-01T11:00:00Z,28.8425,-94.2433,2.0,238.3434241,16.17692801,-99999.0,'11111222,11111222,99999999' 
TABS,ioos:station:wmo:42050:1,2001-10-01T11:30:00Z,28.8425,-94.2433,2.0,239.6871436,5.88449658,-99999.0,'11133222,11111222,99999999' 
TABS,ioos:station:wmo:42050:1,2001-10-01T12:00:00Z,28.8425,-94.2433,2.0,244.6367857,4.902540158,-99999.0,'11133222,11111222,99999999' 
TABS,ioos:station:wmo:42050:1,2001-10-01T12:30:00Z,28.8425,-94.2433,2.0,219.210689,6.16914905,-99999.0,'11133222,11111222,99999999' 
TABS,ioos:station:wmo:42050:1,2001-10-01T13:00:00Z,28.8425,-94.2433,2.0,227.6328159,6.618436371,-99999.0,'11133222,11111222,99999999' 
TABS,ioos:station:wmo:42050:1,2001-10-01T13:30:00Z,28.8425,-94.2433,2.0,245.3514773,4.411995014,-99999.0,'11133222,11111222,99999999' 
TABS,ioos:station:wmo:42050:1,2001-10-01T14:00:00Z,28.8425,-94.2433,2.0,248.3249806,6.714759862,-99999.0,'11133222,11111222,99999999' 
TABS,ioos:station:wmo:42050:1,2001-10-01T14:30:00Z,28.8425,-94.2433,2.0,240.9027583,6.58046351,-99999.0,'11133222,11111222,99999999' 
TABS,ioos:station:wmo:42050:1,2001-10-01T15:00:00Z,28.8425,-94.2433,2.0,245.0860092,8.379791167,-99999.0,'11133222,11111222,99999999' 
TABS,ioos:station:wmo:42050:1,2001-10-01T15:30:00Z,28.8425,-94.2433,2.0,240.6667267,8.798011139,-99999.0,'11133222,11111222,99999999' 
TABS,ioos:station:wmo:42050:1,2001-10-01T16:00:00Z,28.8425,-94.2433,2.0,232.5581402,9.622478891,-99999.0,'11133222,11111222,99999999' 
TABS,ioos:station:wmo:42050:1,2001-10-01T16:30:00Z,28.8425,-94.2433,2.0,232.5397454,9.322494301,-99999.0,'11133222,11111222,99999999' 
TABS,ioos:station:wmo:42050:1,2001-10-01T17:00:00Z,28.8425,-94.2433,2.0,236.3647751,11.51835492,-99999.0,'11111222,11111222,99999999' 
TABS,ioos:station:wmo:42050:1,2001-10-01T17:30:00Z,28.8425,-94.2433,2.0,245.0015573,7.359415738,-99999.0,'11133222,11111222,99999999' 
TABS,ioos:station:wmo:42050:1,2001-10-01T18:00:00Z,28.8425,-94.2433,2.0,236.950667,6.69287681,-99999.0,'11133222,11111222,99999999' 
TABS,ioos:station:wmo:42050:1,2001-10-01T18:30:00Z,28.8425,-94.2433,2.0,232.6560348,12.57842995,-99999.0,'11111222,11111222,99999999' 
TABS,ioos:station:wmo:42050:1,2001-10-01T19:00:00Z,28.8425,-94.2433,2.0,241.8162419,11.24296224,-99999.0,'11111222,11111222,99999999' 
TABS,ioos:station:wmo:42050:1,2001-10-01T19:30:00Z,28.8425,-94.2433,2.0,258.3756822,6.799448507,-99999.0,'11133222,11111222,99999999' 
TABS,ioos:station:wmo:42050:1,2001-10-01T20:00:00Z,28.8425,-94.2433,2.0,249.0281804,4.358726878,-99999.0,'11133222,11111222,99999999' 
TABS,ioos:station:wmo:42050:1,2001-10-01T20:30:00Z,28.8425,-94.2433,2.0,242.972952,9.991076018,-99999.0,'11133222,11111222,99999999' 
TABS,ioos:station:wmo:42050:1,2001-10-01T21:00:00Z,28.8425,-94.2433,2.0,239.7234474,10.43301011,-99999.0,'11111222,11111222,99999999' 
TABS,ioos:station:wmo:42050:1,2001-10-01T21:30:00Z,28.8425,-94.2433,2.0,249.9983858,8.098456643,-99999.0,'11133222,11111222,99999999' 
TABS,ioos:station:wmo:42050:1,2001-10-01T22:00:00Z,28.8425,-94.2433,2.0,212.4494709,8.200390235,-99999.0,'11133222,11111222,99999999' 
TABS,ioos:station:wmo:42050:1,2001-10-01T22:30:00Z,28.8425,-94.2433,2.0,232.4732118,6.63243545,-99999.0,'11133222,11111222,99999999' 
TABS,ioos:station:wmo:42050:1,2001-10-01T23:00:00Z,28.8425,-94.2433,2.0,244.9621119,8.38823581,-99999.0,'11133222,11111222,99999999' 
TABS,ioos:station:wmo:42050:1,2001-10-01T23:30:00Z,28.8425,-94.2433,2.0,221.7207057,8.159227905,-99999.0,'11133222,11111222,99999999' 
TABS,ioos:station:wmo:42050:1,2001-10-02T00:00:00Z,28.8425,-94.2433,2.0,230.4530402,7.366036926,-99999.0,'11133222,11111222,99999999' 
TABS,ioos:station:wmo:42050:1,2001-10-02T00:30:00Z,28.8425,-94.2433,2.0,234.0151118,4.918587196,-99999.0,'11133222,11111222,99999999' 
TABS,ioos:station:wmo:42050:1,2001-10-02T01:00:00Z,28.8425,-94.2433,2.0,250.8634658,4.392732635,-99999.0,'11133222,11111222,99999999' 
TABS,ioos:station:wmo:42050:1,2001-10-02T01:30:00Z,28.8425,-94.2433,2.0,229.5560321,2.759365869,-99999.0,'11133222,11111222,99999999' 
TABS,ioos:station:wmo:42050:1,2001-10-02T02:00:00Z,28.8425,-94.2433,2.0,254.4141413,3.498642594,-99999.0,'11133222,11111222,99999999' 
TABS,ioos:station:wmo:42050:1,2001-10-02T02:30:00Z,28.8425,-94.2433,2.0,252.7071701,4.440720662,-99999.0,'11133222,11111222,99999999' 
TABS,ioos:station:wmo:42050:1,2001-10-02T03:00:00Z,28.8425,-94.2433,2.0,256.5914652,5.088703175,-99999.0,'11133222,11111222,99999999' 
TABS,ioos:station:wmo:42050:1,2001-10-02T03:30:00Z,28.8425,-94.2433,2.0,258.0011748,4.569835883,-99999.0,'11133222,11111222,99999999' 
TABS,ioos:station:wmo:42050:1,2001-10-02T04:00:00Z,28.8425,-94.2433,2.0,235.2409391,3.420321622,-99999.0,'11133222,11111222,99999999' 
TABS,ioos:station:wmo:42050:1,2001-10-02T04:30:00Z,28.8425,-94.2433,2.0,223.1909492,2.688345216,-99999.0,'11133222,11111222,99999999' 
TABS,ioos:station:wmo:42050:1,2001-10-02T05:00:00Z,28.8425,-94.2433,2.0,265.1806023,7.737350968,-99999.0,'11133222,11111222,99999999' 
TABS,ioos:station:wmo:42050:1,2001-10-02T05:30:00Z,28.8425,-94.2433,2.0,254.9031361,3.801184026,-99999.0,'11133222,11111222,99999999' 
TABS,ioos:station:wmo:42050:1,2001-10-02T06:00:00Z,28.8425,-94.2433,2.0,246.7404125,2.481692971,-99999.0,'11133222,11111222,99999999' 
TABS,ioos:station:wmo:42050:1,2001-10-02T06:30:00Z,28.8425,-94.2433,2.0,266.8928309,6.088949006,-99999.0,'11133222,11111222,99999999' 
TABS,ioos:station:wmo:42050:1,2001-10-02T07:00:00Z,28.8425,-94.2433,2.0,254.8338409,3.937118235,-99999.0,'11133222,11111222,99999999' 
TABS,ioos:station:wmo:42050:1,2001-10-02T07:30:00Z,28.8425,-94.2433,2.0,251.5646734,2.656313235,-99999.0,'11133222,11111222,99999999' 
TABS,ioos:station:wmo:42050:1,2001-10-02T08:00:00Z,28.8425,-94.2433,2.0,272.7795813,3.093638634,-99999.0,'11133222,11111222,99999999' 
TABS,ioos:station:wmo:42050:1,2001-10-02T08:30:00Z,28.8425,-94.2433,2.0,351.3138762,0.728354309,-99999.0,'11133222,11111222,99999999' 
TABS,ioos:station:wmo:42050:1,2001-10-02T09:00:00Z,28.8425,-94.2433,2.0,244.8087348,2.98377278,-99999.0,'11133222,11111222,99999999' 
TABS,ioos:station:wmo:42050:1,2001-10-02T09:30:00Z,28.8425,-94.2433,2.0,242.924337,3.515238257,-99999.0,'11133222,11111222,99999999' 
TABS,ioos:station:wmo:42050:1,2001-10-02T10:00:00Z,28.8425,-94.2433,2.0,208.0225059,4.746472374,-99999.0,'11133222,11111222,99999999' 
TABS,ioos:station:wmo:42050:1,2001-10-02T10:30:00Z,28.8425,-94.2433,2.0,163.6207678,3.085206638,-99999.0,'11133222,11111222,99999999' 
TABS,ioos:station:wmo:42050:1,2001-10-02T11:00:00Z,28.8425,-94.2433,2.0,174.0936622,2.623928353,-99999.0,'11133222,11111222,99999999' 
TABS,ioos:station:wmo:42050:1,2001-10-02T11:30:00Z,28.8425,-94.2433,2.0,181.7676125,3.241542843,-99999.0,'11133222,11111222,99999999' 
TABS,ioos:station:wmo:42050:1,2001-10-02T12:00:00Z,28.8425,-94.2433,2.0,195.6376886,5.119501929,-99999.0,'11133222,11111222,99999999' 
TABS,ioos:station:wmo:42050:1,2001-10-02T12:30:00Z,28.8425,-94.2433,2.0,244.8339455,8.606956489,-99999.0,'11133222,11111222,99999999' 
TABS,ioos:station:wmo:42050:1,2001-10-02T13:00:00Z,28.8425,-94.2433,2.0,236.5979888,9.918165153,-99999.0,'11133222,11111222,99999999' 
TABS,ioos:station:wmo:42050:1,2001-10-02T13:30:00Z,28.8425,-94.2433,2.0,244.606383,9.840757085,-99999.0,'11133222,11111222,99999999' 
TABS,ioos:station:wmo:42050:1,2001-10-02T14:00:00Z,28.8425,-94.2433,2.0,263.0905507,7.897347656,-99999.0,'11133222,11111222,99999999' 
TABS,ioos:station:wmo:42050:1,2001-10-02T14:30:00Z,28.8425,-94.2433,2.0,261.4656241,8.827740368,-99999.0,'11133222,11111222,99999999' 
TABS,ioos:station:wmo:42050:1,2001-10-02T15:00:00Z,28.8425,-94.2433,2.0,271.2293469,6.061394229,-99999.0,'11133222,11111222,99999999' 
TABS,ioos:station:wmo:42050:1,2001-10-02T15:30:00Z,28.8425,-94.2433,2.0,274.8256266,6.18190909,-99999.0,'11133222,11111222,99999999' 
TABS,ioos:station:wmo:42050:1,2001-10-02T16:00:00Z,28.8425,-94.2433,2.0,263.7961457,8.791478829,-99999.0,'11133222,11111222,99999999' 
TABS,ioos:station:wmo:42050:1,2001-10-02T16:30:00Z,28.8425,-94.2433,2.0,261.1211786,7.904713784,-99999.0,'11133222,11111222,99999999' 
TABS,ioos:station:wmo:42050:1,2001-10-02T17:00:00Z,28.8425,-94.2433,2.0,261.5801263,14.00089283,-99999.0,'11111222,11111222,99999999' 
TABS,ioos:station:wmo:42050:1,2001-10-02T18:00:00Z,28.8425,-94.2433,2.0,172.6917007,6.210450869,-99999.0,'11133222,11111222,99999999' 
TABS,ioos:station:wmo:42050:1,2001-10-02T18:30:00Z,28.8425,-94.2433,2.0,267.7684097,11.55876291,-99999.0,'11111222,11111222,99999999' 
TABS,ioos:station:wmo:42050:1,2001-10-02T19:00:00Z,28.8425,-94.2433,2.0,260.0051763,14.69297111,-99999.0,'11111222,11111222,99999999' 
TABS,ioos:station:wmo:42050:1,2001-10-02T19:30:00Z,28.8425,-94.2433,2.0,263.3742381,16.64113277,-99999.0,'11111222,11111222,99999999' 
TABS,ioos:station:wmo:42050:1,2001-10-02T20:00:00Z,28.8425,-94.2433,2.0,253.9053169,12.15645096,-99999.0,'11111222,11111222,99999999' 
TABS,ioos:station:wmo:42050:1,2001-10-02T20:30:00Z,28.8425,-94.2433,2.0,265.7767449,6.24695926,-99999.0,'11133222,11111222,99999999' 
TABS,ioos:station:wmo:42050:1,2001-10-02T21:00:00Z,28.8425,-94.2433,2.0,188.3213363,6.771292343,-99999.0,'11133222,11111222,99999999' 
TABS,ioos:station:wmo:42050:1,2001-10-02T21:30:00Z,28.8425,-94.2433,2.0,259.6610062,12.14721779,-99999.0,'11111222,11111222,99999999' 
TABS,ioos:station:wmo:42050:1,2001-10-02T22:00:00Z,28.8425,-94.2433,2.0,256.7044187,15.00208319,-99999.0,'11111222,11111222,99999999' 
TABS,ioos:station:wmo:42050:1,2001-10-02T22:30:00Z,28.8425,-94.2433,2.0,246.7126994,15.32873119,-99999.0,'11111222,11111222,99999999' 
TABS,ioos:station:wmo:42050:1,2001-10-02T23:00:00Z,28.8425,-94.2433,2.0,251.3464515,14.94503262,-99999.0,'11111222,11111222,99999999' 
TABS,ioos:station:wmo:42050:1,2001-10-02T23:30:00Z,28.8425,-94.2433,2.0,233.374195,15.00213651,-99999.0,'11111222,11111222,99999999' 
TABS,ioos:station:wmo:42050:1,2001-10-03T00:00:00Z,28.8425,-94.2433,2.0,229.3106019,13.45187348,-99999.0,'11111222,11111222,99999999' 
TABS,ioos:station:wmo:42050:1,2001-10-03T00:30:00Z,28.8425,-94.2433,2.0,218.7128057,6.715474667,-99999.0,'11133222,11111222,99999999' 
TABS,ioos:station:wmo:42050:1,2001-10-03T01:00:00Z,28.8425,-94.2433,2.0,217.2345365,5.338108279,-99999.0,'11133222,11111222,99999999' 
TABS,ioos:station:wmo:42050:1,2001-10-03T01:30:00Z,28.8425,-94.2433,2.0,212.4192417,4.252822592,-99999.0,'11133222,11111222,99999999' 
TABS,ioos:station:wmo:42050:1,2001-10-03T02:00:00Z,28.8425,-94.2433,2.0,196.833681,2.037302138,-99999.0,'11133222,11111222,99999999' 
TABS,ioos:station:wmo:42050:1,2001-10-03T02:30:00Z,28.8425,-94.2433,2.0,200.8206337,3.798025803,-99999.0,'11133222,11111222,99999999' 
TABS,ioos:station:wmo:42050:1,2001-10-03T03:00:00Z,28.8425,-94.2433,2.0,233.53043,2.00204895,-99999.0,'11133222,11111222,99999999' 
TABS,ioos:station:wmo:42050:1,2001-10-03T03:30:00Z,28.8425,-94.2433,2.0,247.379767,2.47,-99999.0,'11133222,11111222,99999999' 
TABS,ioos:station:wmo:42050:1,2001-10-03T04:00:00Z,28.8425,-94.2433,2.0,282.3536003,2.477357463,-99999.0,'11133222,11111222,99999999' 
TABS,ioos:station:wmo:42050:1,2001-10-03T04:30:00Z,28.8425,-94.2433,2.0,276.2700888,4.486836302,-99999.0,'11133222,11111222,99999999' 
TABS,ioos:station:wmo:42050:1,2001-10-03T05:00:00Z,28.8425,-94.2433,2.0,283.977746,4.719745756,-99999.0,'11133222,11111222,99999999' 
TABS,ioos:station:wmo:42050:1,2001-10-03T05:30:00Z,28.8425,-94.2433,2.0,273.4647634,4.468165172,-99999.0,'11133222,11111222,99999999' 
TABS,ioos:station:wmo:42050:1,2001-10-03T06:00:00Z,28.8425,-94.2433,2.0,272.5384601,5.645538061,-99999.0,'11133222,11111222,99999999' 
TABS,ioos:station:wmo:42050:1,2001-10-03T06:30:00Z,28.8425,-94.2433,2.0,243.1402657,2.611761857,-99999.0,'11133222,11111222,99999999' 
TABS,ioos:station:wmo:42050:1,2001-10-03T07:00:00Z,28.8425,-94.2433,2.0,277.8694781,3.72507718,-99999.0,'11133222,11111222,99999999' 
TABS,ioos:station:wmo:42050:1,2001-10-03T07:30:00Z,28.8425,-94.2433,2.0,284.001242,3.926652518,-99999.0,'11133222,11111222,99999999' 
TABS,ioos:station:wmo:42050:1,2001-10-03T08:00:00Z,28.8425,-94.2433,2.0,266.8576253,4.196307901,-99999.0,'11133222,11111222,99999999' 
TABS,ioos:station:wmo:42050:1,2001-10-03T08:30:00Z,28.8425,-94.2433,2.0,311.8852582,2.081970221,-99999.0,'11133222,11111222,99999999' 
TABS,ioos:station:wmo:42050:1,2001-10-03T09:00:00Z,28.8425,-94.2433,2.0,265.600884,4.433057636,-99999.0,'11133222,11111222,99999999' 
TABS,ioos:station:wmo:42050:1,2001-10-03T09:30:00Z,28.8425,-94.2433,2.0,275.2557516,4.257898543,-99999.0,'11133222,11111222,99999999' 
TABS,ioos:station:wmo:42050:1,2001-10-03T10:00:00Z,28.8425,-94.2433,2.0,315.4764458,2.552743622,-99999.0,'11133222,11111222,99999999' 
TABS,ioos:station:wmo:42050:1,2001-10-03T10:30:00Z,28.8425,-94.2433,2.0,255.3108267,3.194401352,-99999.0,'11133222,11111222,99999999' 
TABS,ioos:station:wmo:42050:1,2001-10-03T11:00:00Z,28.8425,-94.2433,2.0,213.2467795,3.228451641,-99999.0,'11133222,11111222,99999999' 
TABS,ioos:station:wmo:42050:1,2001-10-03T11:30:00Z,28.8425,-94.2433,2.0,155.9218931,4.534545181,-99999.0,'11133222,11111222,99999999' 
TABS,ioos:station:wmo:42050:1,2001-10-03T12:00:00Z,28.8425,-94.2433,2.0,228.7582312,3.883297568,-99999.0,'11133222,11111222,99999999' 
TABS,ioos:station:wmo:42050:1,2001-10-03T12:30:00Z,28.8425,-94.2433,2.0,237.0685356,9.84124484,-99999.0,'11133222,11111222,99999999' 
TABS,ioos:station:wmo:42050:1,2001-10-03T13:00:00Z,28.8425,-94.2433,2.0,241.3763008,7.097386843,-99999.0,'11133222,11111222,99999999' 
TABS,ioos:station:wmo:42050:1,2001-10-03T13:30:00Z,28.8425,-94.2433,2.0,241.5059405,7.441377561,-99999.0,'11133222,11111222,99999999' 
TABS,ioos:station:wmo:42050:1,2001-10-03T14:00:00Z,28.8425,-94.2433,2.0,234.4113635,9.210304012,-99999.0,'11133222,11111222,99999999' 
TABS,ioos:station:wmo:42050:1,2001-10-03T14:30:00Z,28.8425,-94.2433,2.0,258.3839361,7.350537395,-99999.0,'11133222,11111222,99999999' 
TABS,ioos:station:wmo:42050:1,2001-10-03T15:00:00Z,28.8425,-94.2433,2.0,254.4198944,8.824222345,-99999.0,'11133222,11111222,99999999' 
TABS,ioos:station:wmo:42050:1,2001-10-03T15:30:00Z,28.8425,-94.2433,2.0,285.9318424,5.646892951,-99999.0,'11133222,11111222,99999999' 
TABS,ioos:station:wmo:42050:1,2001-10-03T16:00:00Z,28.8425,-94.2433,2.0,269.8524789,7.790025674,-99999.0,'11133222,11111222,99999999' 
TABS,ioos:station:wmo:42050:1,2001-10-03T16:30:00Z,28.8425,-94.2433,2.0,276.8597207,9.628919981,-99999.0,'11133222,11111222,99999999' 
TABS,ioos:station:wmo:42050:1,2001-10-03T17:00:00Z,28.8425,-94.2433,2.0,294.0878169,6.517522535,-99999.0,'11133222,11111222,99999999' 
TABS,ioos:station:wmo:42050:1,2001-10-03T17:30:00Z,28.8425,-94.2433,2.0,290.7030581,8.231530842,-99999.0,'11133222,11111222,99999999' 
TABS,ioos:station:wmo:42050:1,2001-10-03T18:00:00Z,28.8425,-94.2433,2.0,294.1833848,8.177658589,-99999.0,'11133222,11111222,99999999' 
TABS,ioos:station:wmo:42050:1,2001-10-03T18:30:00Z,28.8425,-94.2433,2.0,309.9235973,9.349272699,-99999.0,'11133222,11111222,99999999' 
TABS,ioos:station:wmo:42050:1,2001-10-03T19:00:00Z,28.8425,-94.2433,2.0,327.0258689,7.771955996,-99999.0,'11133222,11111222,99999999' 
TABS,ioos:station:wmo:42050:1,2001-10-03T19:30:00Z,28.8425,-94.2433,2.0,313.8770156,9.378038174,-99999.0,'11133222,11111222,99999999' 
TABS,ioos:station:wmo:42050:1,2001-10-03T20:00:00Z,28.8425,-94.2433,2.0,307.1016118,7.924064614,-99999.0,'11133222,11111222,99999999' 
TABS,ioos:station:wmo:42050:1,2001-10-03T20:30:00Z,28.8425,-94.2433,2.0,308.1843962,9.59252313,-99999.0,'11133222,11111222,99999999' 
TABS,ioos:station:wmo:42050:1,2001-10-03T21:00:00Z,28.8425,-94.2433,2.0,308.211357,7.177966286,-99999.0,'11133222,11111222,99999999' 
TABS,ioos:station:wmo:42050:1,2001-10-03T21:30:00Z,28.8425,-94.2433,2.0,270.8331478,10.32109006,-99999.0,'11111222,11111222,99999999' 
TABS,ioos:station:wmo:42050:1,2001-10-03T22:00:00Z,28.8425,-94.2433,2.0,268.8036016,9.582087455,-99999.0,'11133222,11111222,99999999' 
TABS,ioos:station:wmo:42050:1,2001-10-03T22:30:00Z,28.8425,-94.2433,2.0,260.4018926,10.43607685,-99999.0,'11111222,11111222,99999999' 
TABS,ioos:station:wmo:42050:1,2001-10-03T23:00:00Z,28.8425,-94.2433,2.0,245.2591464,10.39404156,-99999.0,'11111222,11111222,99999999' 
TABS,ioos:station:wmo:42050:1,2001-10-03T23:30:00Z,28.8425,-94.2433,2.0,249.1954788,8.1086867,-99999.0,'11133222,11111222,99999999' 
TABS,ioos:station:wmo:42050:1,2001-10-04T00:00:00Z,28.8425,-94.2433,2.0,221.2509777,6.597279742,-99999.0,'11133222,11111222,99999999' 
TABS,ioos:station:wmo:42050:1,2001-10-04T00:30:00Z,28.8425,-94.2433,2.0,225.2868781,5.642783001,-99999.0,'11133222,11111222,99999999' 
TABS,ioos:station:wmo:42050:1,2001-10-04T01:00:00Z,28.8425,-94.2433,2.0,251.8344099,11.41911117,-99999.0,'11111222,11111222,99999999' 
TABS,ioos:station:wmo:42050:1,2001-10-04T01:30:00Z,28.8425,-94.2433,2.0,258.3823859,4.022399781,-99999.0,'11133222,11111222,99999999' 
TABS,ioos:station:wmo:42050:1,2001-10-04T02:00:00Z,28.8425,-94.2433,2.0,252.1553292,13.80407549,-99999.0,'11111222,11111222,99999999' 
TABS,ioos:station:wmo:42050:1,2001-10-04T02:30:00Z,28.8425,-94.2433,2.0,262.5775735,10.52820972,-99999.0,'11111222,11111222,99999999' 
TABS,ioos:station:wmo:42050:1,2001-10-04T03:00:00Z,28.8425,-94.2433,2.0,240.4132298,3.139331139,-99999.0,'11133222,11111222,99999999' 
TABS,ioos:station:wmo:42050:1,2001-10-04T03:30:00Z,28.8425,-94.2433,2.0,265.4377818,5.657923647,-99999.0,'11133222,11111222,99999999' 
TABS,ioos:station:wmo:42050:1,2001-10-04T04:00:00Z,28.8425,-94.2433,2.0,232.340893,2.324220299,-99999.0,'11133222,11111222,99999999' 
TABS,ioos:station:wmo:42050:1,2001-10-04T04:30:00Z,28.8425,-94.2433,2.0,267.6136406,4.083540131,-99999.0,'11133222,11111222,99999999' 
TABS,ioos:station:wmo:42050:1,2001-10-04T05:00:00Z,28.8425,-94.2433,2.0,141.952836,0.292061637,-99999.0,'11133222,11111222,99999999' 
TABS,ioos:station:wmo:42050:1,2001-10-04T05:30:00Z,28.8425,-94.2433,2.0,269.5056633,1.160043103,-99999.0,'11133222,11111222,99999999' 
TABS,ioos:station:wmo:42050:1,2001-10-04T06:00:00Z,28.8425,-94.2433,2.0,295.7963871,3.332041416,-99999.0,'11133222,11111222,99999999' 
TABS,ioos:station:wmo:42050:1,2001-10-04T06:30:00Z,28.8425,-94.2433,2.0,227.2366581,1.811573901,-99999.0,'11133222,11111222,99999999' 
TABS,ioos:station:wmo:42050:1,2001-10-04T07:00:00Z,28.8425,-94.2433,2.0,229.9180535,2.391756677,-99999.0,'11133222,11111222,99999999' 
TABS,ioos:station:wmo:42050:1,2001-10-04T07:30:00Z,28.8425,-94.2433,2.0,233.0008688,1.778004499,-99999.0,'11133222,11111222,99999999' 
TABS,ioos:station:wmo:42050:1,2001-10-04T08:00:00Z,28.8425,-94.2433,2.0,212.4063838,2.724261368,-99999.0,'11133222,11111222,99999999' 
TABS,ioos:station:wmo:42050:1,2001-10-04T08:30:00Z,28.8425,-94.2433,2.0,235.0076407,2.075114455,-99999.0,'11133222,11111222,99999999' 
TABS,ioos:station:wmo:42050:1,2001-10-04T09:00:00Z,28.8425,-94.2433,2.0,242.1668435,3.234145946,-99999.0,'11133222,11111222,99999999' 
TABS,ioos:station:wmo:42050:1,2001-10-04T09:30:00Z,28.8425,-94.2433,2.0,210.2215571,3.576045302,-99999.0,'11133222,11111222,99999999' 
TABS,ioos:station:wmo:42050:1,2001-10-04T10:00:00Z,28.8425,-94.2433,2.0,110.1125413,0.756108458,-99999.0,'11133222,11111222,99999999' 
TABS,ioos:station:wmo:42050:1,2001-10-04T10:30:00Z,28.8425,-94.2433,2.0,217.1995147,3.126051823,-99999.0,'11133222,11111222,99999999' 
TABS,ioos:station:wmo:42050:1,2001-10-04T11:00:00Z,28.8425,-94.2433,2.0,219.690062,3.820628221,-99999.0,'11133222,11111222,99999999' 
TABS,ioos:station:wmo:42050:1,2001-10-04T11:30:00Z,28.8425,-94.2433,2.0,195.5423318,3.321460522,-99999.0,'11133222,11111222,99999999' 
TABS,ioos:station:wmo:42050:1,2001-10-04T12:00:00Z,28.8425,-94.2433,2.0,223.6452413,5.085518656,-99999.0,'11133222,11111222,99999999' 
TABS,ioos:station:wmo:42050:1,2001-10-04T12:30:00Z,28.8425,-94.2433,2.0,233.0274135,10.07601608,-99999.0,'11111222,11111222,99999999' 
TABS,ioos:station:wmo:42050:1,2001-10-04T13:00:00Z,28.8425,-94.2433,2.0,223.9075253,12.24224244,-99999.0,'11111222,11111222,99999999' 
TABS,ioos:station:wmo:42050:1,2001-10-04T13:30:00Z,28.8425,-94.2433,2.0,238.3866394,13.62129216,-99999.0,'11111222,11111222,99999999' 
TABS,ioos:station:wmo:42050:1,2001-10-04T14:00:00Z,28.8425,-94.2433,2.0,233.8511577,12.86701986,-99999.0,'11111222,11111222,99999999' 
TABS,ioos:station:wmo:42050:1,2001-10-04T14:30:00Z,28.8425,-94.2433,2.0,235.3763958,12.6016864,-99999.0,'11111222,11111222,99999999' 
TABS,ioos:station:wmo:42050:1,2001-10-04T15:00:00Z,28.8425,-94.2433,2.0,246.8605673,11.37508242,-99999.0,'11111222,11111222,99999999' 
TABS,ioos:station:wmo:42050:1,2001-10-04T15:30:00Z,28.8425,-94.2433,2.0,251.3864296,9.14851354,-99999.0,'11133222,11111222,99999999' 
TABS,ioos:station:wmo:42050:1,2001-10-04T16:00:00Z,28.8425,-94.2433,2.0,255.9308879,8.556658226,-99999.0,'11133222,11111222,99999999' 
TABS,ioos:station:wmo:42050:1,2001-10-04T16:30:00Z,28.8425,-94.2433,2.0,240.7875944,7.069045197,-99999.0,'11133222,11111222,99999999' 